Weather Roundup
Issued by NWS

Home | Current Version | Previous Version | Text Only | Print | Product List | Glossary On
Versions: 1 2 3 4 5 6 7 8 9 10 11 12 13 14 15 16 17 18 19 20 21 22 23 24 25 26 27 28 29 30 31 32 33 34 35 36 37 38 39 40 41 42 43 44 45 46 47 48 49 50
000
NZUS93 KARX 260810
HRRWXR

CURRENT HOURLY OBSERVATIONS ACROSS
MUCH OF THE UPPER MISSISSIPPI VALLEY
NATIONAL WEATHER SERVICE LA CROSSE WI
200 AM CST MON JAN 26 2015


...SOUTHEAST MINNESOTA...


CITY           SKY/WX    TMP DP  RH WIND       PRES   REMARKS
ROCHESTER      CLOUDY    23  19  85 S9        29.93F WCI  13
ROCHESTER/MAYO CLOUDY    24  19  80 SW6       29.94F WCI  17
WINONA         CLOUDY    21  18  86 SE5       29.97F WCI  15
AUSTIN         MOCLDY    23  19  86 S7        29.94F WCI  15
ALBERT LEA     CLOUDY    25  23  93 S6        29.93F WCI  18
DODGE CENTER   CLOUDY    23  21  93 S9        29.91F WCI  13
PRESTON        CLOUDY    24  19  83 SW8       29.93F WCI  15
OWATONNA       CLOUDY    25  19  80 S9        29.90S WCI  15
FARIBAULT      CLOUDY    25  21  86 S6        29.92F WCI  18
$$

...ELSEWHERE IN MINNESOTA...


CITY           SKY/WX    TMP DP  RH WIND       PRES   REMARKS
MINNEAPOLIS    CLOUDY    23  17  78 S6        29.90F WCI  16
INTNL FALLS    LGT SNOW  21  18  88 SE9       29.64F FOG     WCI  11
DULUTH         FLURRIES  20  12  71 S14       29.77F WCI   7
RED WING       CLOUDY    21  18  86 SE3       29.92F
REDWOOD FALLS  CLOUDY    32  29  88 S12       29.87F WCI  23
MANKATO        CLOUDY    27  21  80 S10       29.90F WCI  17
WORTHINGTON    PTCLDY    30  28  93 SW14      29.88F WCI  20
FAIRMONT       CLOUDY    30  25  80 S12       29.92R WCI  21
$$

...SOUTHWEST WISCONSIN...


CITY           SKY/WX    TMP DP  RH WIND       PRES   REMARKS
LA CROSSE      CLOUDY    23  13  65 S8        30.00F WCI  14
PRAIRIE DU CHI CLOUDY    19  13  78 CALM      30.03F
BOSCOBEL       PTCLDY    14  10  84 CALM      30.04F
LONE ROCK      CLEAR     12   7  80 CALM      30.03F
PLATTEVILLE    PTCLDY    14  11  87 CALM      30.00F
FORT MC COY    PTCLDY    15  11  87 CALM      30.00F
CAMP DOUGLAS   MOCLDY    11  10  99 S5        29.99F WCI   2
VIROQUA        FAIR      18  12  79 S7        29.97S WCI   8
WIS DELLS      CLEAR     10   7  87 CALM      30.00S
$$

...ELSEWHERE IN WISCONSIN...


CITY           SKY/WX    TMP DP  RH WIND       PRES   REMARKS
MILWAUKEE      MOCLDY    18  11  74 NW6       30.00F WCI  10
MADISON        CLEAR     11   7  84 CALM      30.00F
GREEN BAY      PTCLDY    12   8  84 CALM      30.01F
EAU CLAIRE     CLOUDY    20  11  68 S9        29.94F WCI   9
BLACK RVR FLS  FAIR      16  10  78 CALM      29.98F
MEDFORD        MOCLDY    13   6  73 S10       29.90F WCI   0
WAUSAU         PTCLDY    10   5  80 SE5       29.94F WCI   2
WIS RAPIDS     CLEAR     10   5  80 S5        29.99F WCI   2
MARSHFIELD     CLEAR     12   6  77 S7        29.95F WCI   1
RICE LAKE      CLOUDY    18  11  75 SE6       29.91F WCI   9
$$

...NORTHEAST IOWA...


CITY           SKY/WX    TMP DP  RH WIND       PRES   REMARKS
DECORAH        CLOUDY    23  16  74 S10       29.97F WCI  12
MASON CITY     CLOUDY    27  23  85 S8        29.96F WCI  19
CHARLES CITY   CLOUDY    27  23  86 S5        29.97F WCI  21
OELWEIN        CLOUDY    23  18  80 S8        30.00F WCI  14
$$

...ELSEWHERE IN IOWA...


CITY           SKY/WX    TMP DP  RH WIND       PRES   REMARKS
DES MOINES     CLOUDY    32  24  72 SW6       30.03S WCI  26
IOWA CITY      CLOUDY    22  15  75 CALM      30.06F
FORT DODGE     CLOUDY    28  25  86 SW7       30.00F WCI  21
$$

...NORTHERN ILLINOIS...


CITY           SKY/WX    TMP DP  RH WIND       PRES   REMARKS
CHICAGO-OHARE  MOCLDY    24  15  68 NE12      29.98S WCI  13
CHICAGO-MIDWAY MOCLDY    25  17  72 NE7       29.99R WCI  17
MOLINE         MOCLDY    18  11  74 CALM      30.05F
ROCKFORD       PTCLDY    15   9  76 N7        30.03F WCI   5
PEORIA         MOCLDY    22  14  71 N6        30.04R WCI  14
$$

NOTE: "FAIR" INDICATES FEW OR NO CLOUDS BELOW 12,000 FEET WITH NO
SIGNIFICANT WEATHER AND/OR OBSTRUCTIONS TO VISIBILITY. WIND
SPEEDS ARE IN MILES-PER-HOUR.



USA.gov is the U.S. government's official web portal to all federal, state and local government web resources and services.